Weather History for Brady, TX

Change the Weather History Date:

Monday, July 2, 2012

  Actual Average (KJCT) Record (KJCT)
Temperature  
Mean Temperature 79 °F -  
Max Temperature 89 °F 90 °F 102 °F (2005)
Min Temperature 69 °F 68 °F 55 °F (2013)
Cooling Degree Days 14    
Growing Degree Days 29 (Base 50)    
Moisture  
Dew Point 67 °F    
Average Humidity 70    
Maximum Humidity 100    
Minimum Humidity 40    
Precipitation  
Precipitation 0.00 in - - ()
Sea Level Pressure  
Sea Level Pressure 30.04 in    
Wind  
Wind Speed 9 mph (SE)    
Max Wind Speed 20 mph    
Max Gust Speed -    
Visibility 10 miles    
Events      
Averages and records for this station are not official NWS values.
T = Trace of Precipitation, MM = Missing Value Source: NWS Daily Summary

Daily Weather History Graph

Daily Weather History Graph

Search for Another Location

Airport:

Trip Planner

Search our weather history database for the weather conditions in past years. The results will help you decide how hot, cold, wet, or windy it might be!

Date:

Astronomy

Jul. 02, 2012 Rise Set
Actual Time 6:37 AM CDT 8:45 PM CDT
Civil Twilight 6:09 AM CDT 9:13 PM CDT
Nautical Twilight 5:35 AM CDT 9:46 PM CDT
Astronomical Twilight 4:59 AM CDT 10:23 PM CDT
Moon 7:51 PM CDT (7/2) 5:24 AM CDT (7/2)
Length of Visible Light 15h 03m
Length of Day
14h 07m
Waxing Gibbous, 98% of the Moon is Illuminated
Jul 2
Waxing Gibbous
Jul 3
Full
Jul 10
Last Quarter
Jul 18
New
Jul 26
First Quarter

Hourly Weather History & Observations

Time (CDT) Temp. Heat Index Dew Point Humidity Pressure Visibility Wind Dir Wind Speed Gust Speed Precip Events Conditions
12:15 AM 69.8 °F - 69.8 °F 100% 30.05 in 10.0 mi SE 8.1 mph - N/A   Clear
12:35 AM 69.8 °F - 69.8 °F 100% 30.05 in 10.0 mi SE 6.9 mph - N/A   Clear
12:55 AM 69.8 °F - 69.8 °F 100% 30.04 in 10.0 mi SE 5.8 mph - N/A   Clear
1:15 AM 69.8 °F - 69.8 °F 100% 30.04 in 10.0 mi SE 4.6 mph - N/A   Clear
1:35 AM 69.8 °F - 69.8 °F 100% 30.04 in 10.0 mi SE 4.6 mph - N/A   Clear
1:55 AM 69.8 °F - 69.8 °F 100% 30.04 in 10.0 mi SSE 6.9 mph - N/A   Clear
2:15 AM 69.8 °F - 69.8 °F 100% 30.04 in 10.0 mi SSE 6.9 mph - N/A   Clear
2:35 AM 69.8 °F - 69.8 °F 100% 30.04 in 10.0 mi SSE 4.6 mph - N/A   Partly Cloudy
2:55 AM 69.8 °F - 69.8 °F 100% 30.03 in 10.0 mi SE 5.8 mph - N/A   Partly Cloudy
3:15 AM 69.8 °F - 69.8 °F 100% 30.03 in 10.0 mi SSE 5.8 mph - N/A   Clear
3:35 AM 69.8 °F - 69.8 °F 100% 30.03 in 10.0 mi SE 4.6 mph - N/A   Clear
3:55 AM 69.8 °F - 69.8 °F 100% 30.03 in 10.0 mi SSE 3.5 mph - N/A   Partly Cloudy
4:15 AM 69.8 °F - 69.8 °F 100% 30.03 in 10.0 mi SSE 5.8 mph - N/A   Clear
4:35 AM 69.8 °F - 69.8 °F 100% 30.03 in 10.0 mi SE 5.8 mph - N/A   Clear
4:55 AM 69.8 °F - 69.8 °F 100% 30.03 in 10.0 mi SSE 5.8 mph - N/A   Clear
5:15 AM 69.8 °F - 69.8 °F 100% 30.03 in 10.0 mi SE 6.9 mph - N/A   Clear
5:35 AM 71.6 °F - 69.8 °F 94% 30.04 in 10.0 mi SSE 6.9 mph - N/A   Clear
5:55 AM 71.6 °F - 69.8 °F 94% 30.04 in 10.0 mi SSE 6.9 mph - N/A   Clear
6:15 AM 71.6 °F - 69.8 °F 94% 30.04 in 10.0 mi SE 4.6 mph - N/A   Clear
6:35 AM 71.6 °F - 69.8 °F 94% 30.05 in 10.0 mi SE 4.6 mph - N/A   Clear
6:55 AM 71.6 °F - 69.8 °F 94% 30.05 in 9.0 mi SE 5.8 mph - N/A   Clear
7:15 AM 71.6 °F - 71.6 °F 100% 30.06 in 10.0 mi SE 6.9 mph - N/A   Clear
7:35 AM 71.6 °F - 71.6 °F 100% 30.06 in 8.0 mi SE 5.8 mph - N/A   Clear
7:55 AM 71.6 °F - 71.6 °F 100% 30.07 in 9.0 mi SE 9.2 mph - N/A   Clear
8:15 AM 71.6 °F - 71.6 °F 100% 30.08 in 9.0 mi SE 8.1 mph - N/A   Clear
8:35 AM 73.4 °F - 71.6 °F 94% 30.09 in 8.0 mi SE 5.8 mph - N/A   Clear
8:55 AM 73.4 °F - 73.4 °F 100% 30.10 in 9.0 mi ESE 9.2 mph - N/A   Clear
9:15 AM 75.2 °F - 73.4 °F 94% 30.10 in 9.0 mi SE 8.1 mph - N/A   Mostly Cloudy
9:35 AM 75.2 °F - 73.4 °F 94% 30.11 in 10.0 mi SE 10.4 mph - N/A   Overcast
9:55 AM 77.0 °F - 71.6 °F 83% 30.11 in 10.0 mi SSE 11.5 mph - N/A   Mostly Cloudy
10:15 AM 78.8 °F - 71.6 °F 78% 30.10 in 10.0 mi SSE 10.4 mph - N/A   Mostly Cloudy
10:35 AM 80.6 °F 83.9 °F 69.8 °F 70% 30.09 in 10.0 mi SSE 16.1 mph - N/A   Scattered Clouds
10:55 AM 80.6 °F 83.9 °F 69.8 °F 70% 30.09 in 10.0 mi SSE 12.7 mph - N/A   Partly Cloudy
11:15 AM 82.4 °F 85.4 °F 68.0 °F 62% 30.09 in 10.0 mi SSE 12.7 mph - N/A   Partly Cloudy
11:35 AM 82.4 °F 85.4 °F 68.0 °F 62% 30.09 in 10.0 mi SSE 13.8 mph - N/A   Scattered Clouds
11:55 AM 82.4 °F 85.4 °F 68.0 °F 62% 30.09 in 10.0 mi SE 16.1 mph - N/A   Mostly Cloudy
12:35 PM 84.2 °F 86.6 °F 66.2 °F 55% 30.08 in 10.0 mi SSE 16.1 mph - N/A   Scattered Clouds
12:55 PM 87.8 °F 90.4 °F 66.2 °F 49% 30.07 in 10.0 mi South 12.7 mph - N/A   Scattered Clouds
1:15 PM 86.0 °F 87.3 °F 64.4 °F 48% 30.07 in 10.0 mi SE 18.4 mph - N/A   Partly Cloudy
1:35 PM 87.8 °F 90.4 °F 66.2 °F 49% 30.07 in 10.0 mi SE 15.0 mph - N/A   Partly Cloudy
1:55 PM 87.8 °F 89.4 °F 64.4 °F 46% 30.06 in 10.0 mi SSE 12.7 mph - N/A   Partly Cloudy
2:15 PM 87.8 °F 90.4 °F 66.2 °F 49% 30.06 in 10.0 mi SE 15.0 mph - N/A   Mostly Cloudy
2:35 PM 87.8 °F 89.4 °F 64.4 °F 46% 30.05 in 10.0 mi SE 17.3 mph - N/A   Partly Cloudy
2:55 PM 89.6 °F 91.1 °F 64.4 °F 43% 30.05 in 10.0 mi SE 16.1 mph - N/A   Clear
3:15 PM 89.6 °F 92.2 °F 66.2 °F 46% 30.04 in 10.0 mi SE 19.6 mph - N/A   Partly Cloudy
3:35 PM 89.6 °F 92.2 °F 66.2 °F 46% 30.03 in 10.0 mi SE 18.4 mph - N/A   Scattered Clouds
3:55 PM 89.6 °F 92.2 °F 66.2 °F 46% 30.02 in 10.0 mi SE 18.4 mph - N/A   Partly Cloudy
4:15 PM 89.6 °F 92.2 °F 66.2 °F 46% 30.02 in 10.0 mi SE 16.1 mph - N/A   Partly Cloudy
4:35 PM 89.6 °F 91.1 °F 64.4 °F 43% 30.01 in 10.0 mi SE 13.8 mph - N/A   Partly Cloudy
4:55 PM 89.6 °F 91.1 °F 64.4 °F 43% 30.01 in 10.0 mi SE 17.3 mph - N/A   Partly Cloudy
5:15 PM 89.6 °F 91.1 °F 64.4 °F 43% 30.00 in 10.0 mi SE 15.0 mph - N/A   Partly Cloudy
5:35 PM 89.6 °F 91.1 °F 64.4 °F 43% 29.99 in 10.0 mi SSE 16.1 mph - N/A   Partly Cloudy
5:55 PM 89.6 °F 90.1 °F 62.6 °F 40% 29.99 in 10.0 mi SSE 16.1 mph - N/A   Partly Cloudy
6:15 PM 89.6 °F 90.1 °F 62.6 °F 40% 29.98 in 10.0 mi SSE 15.0 mph - N/A   Clear
6:35 PM 89.6 °F 90.1 °F 62.6 °F 40% 29.98 in 10.0 mi SE 17.3 mph - N/A   Clear
6:55 PM 89.6 °F 90.1 °F 62.6 °F 40% 29.98 in 10.0 mi SE 13.8 mph - N/A   Clear
7:15 PM 89.6 °F 90.1 °F 62.6 °F 40% 29.98 in 10.0 mi SE 13.8 mph - N/A   Clear
7:35 PM 89.6 °F 90.1 °F 62.6 °F 40% 29.98 in 10.0 mi SE 15.0 mph - N/A   Clear
7:55 PM 87.8 °F 87.6 °F 60.8 °F 40% 29.99 in 10.0 mi SE 15.0 mph - N/A   Clear
8:15 PM 87.8 °F 88.5 °F 62.6 °F 43% 29.99 in 10.0 mi SE 10.4 mph - N/A   Clear
8:55 PM 86.0 °F 86.1 °F 60.8 °F 43% 29.99 in 10.0 mi SSE 12.7 mph - N/A   Clear
9:15 PM 84.2 °F 84.4 °F 60.8 °F 45% 30.00 in 10.0 mi SE 9.2 mph - N/A   Clear
9:35 PM 84.2 °F 84.4 °F 60.8 °F 45% 30.00 in 10.0 mi SE 9.2 mph - N/A   Clear
9:55 PM 82.4 °F 82.9 °F 60.8 °F 48% 30.01 in 10.0 mi SE 8.1 mph - N/A   Clear
10:15 PM 82.4 °F 82.9 °F 60.8 °F 48% 30.02 in 10.0 mi SE 5.8 mph - N/A   Clear
10:35 PM 80.6 °F 81.5 °F 60.8 °F 51% 30.03 in 10.0 mi SE 6.9 mph - N/A   Clear
10:55 PM 80.6 °F 81.5 °F 60.8 °F 51% 30.03 in 10.0 mi SE 8.1 mph - N/A   Clear
11:15 PM 80.6 °F 81.5 °F 60.8 °F 51% 30.03 in 10.0 mi SE 9.2 mph - N/A   Clear
11:35 PM 80.6 °F 81.5 °F 60.8 °F 51% 30.03 in 10.0 mi SE 11.5 mph - N/A   Clear
11:55 PM 80.6 °F 81.8 °F 62.6 °F 54% 30.04 in 10.0 mi SE 11.5 mph - N/A   Clear